1531922400.09,2058,17.81,73486.5,9.15,8.87,8.87,0,*4F
1531922401.33,2059,17.81,73474.8,9.15,8.75,8.75,0,*4E
1531922402.58,2060,17.81,73466.3,9.15,8.47,8.55,0,*47
1531922403.8,2061,17.81,73478.0,9.15,8.75,8.83,0,*4C
1531922405.02,2062,17.81,73476.5,9.15,8.97,9.07,0,*4E
1531922406.2,2063,17.81,73480.8,9.15,8.65,8.65,0,*47
1531922407.43,2064,17.81,73484.8,9.15,8.87,8.93,0,*45
1531922408.63,2065,17.81,73480.5,9.15,9.07,9.07,0,*41
1531922409.84,2066,17.81,73484.5,9.13,9.03,9.01,0,*46
1531922411.01,2067,17.81,73482.3,9.13,8.83,8.83,0,*45
1531922412.24,2068,17.81,73474.0,9.13,8.47,8.47,0,*4A
1531922413.46,2069,17.81,73464.3,9.13,8.59,8.59,0,*4B
1531922414.64,2070,17.81,73468.8,9.13,8.83,8.79,0,*46
1531922415.86,2071,17.81,73466.8,9.13,8.89,8.93,0,*49
1531922417.06,2072,17.81,73462.8,9.13,9.03,9.11,0,*42
1531922418.28,2073,17.81,73460.5,9.13,9.11,9.11,0,*40
1531922419.51,2074,17.81,73468.5,9.11,8.75,8.79,0,*49
1531922420.71,2075,17.81,73470.8,9.13,8.83,8.89,0,*4C
1531922421.91,2076,17.81,73464.8,9.13,9.01,9.03,0,*47
1531922423.14,2077,17.81,73470.3,9.13,8.89,9.01,0,*45
1531922424.36,2078,17.81,73480.3,9.13,8.93,8.93,0,*4B
1531922425.59,2079,17.81,73484.8,9.13,9.01,9.01,0,*4A
1531922426.8,2080,17.81,73480.8,9.13,8.59,8.61,0,*47
1531922428.05,2081,17.81,73478.3,9.11,8.47,8.55,0,*4C
1531922429.27,2082,17.81,73472.5,9.13,8.71,8.71,0,*4E
1531922430.45,2083,17.81,73472.3,9.13,8.83,8.79,0,*4A
1531922431.67,2084,17.81,73474.0,9.13,8.47,8.59,0,*47
1531922432.87,2085,17.81,73478.3,9.13,8.71,8.79,0,*41
1531922434.05,2086,17.81,73482.0,9.13,9.03,9.03,0,*4A
1531922435.31,2087,17.81,73476.5,9.11,9.01,9.01,0,*49
1531922436.51,2088,17.81,73478.3,9.11,9.07,9.07,0,*46
1531922437.76,2089,17.81,73472.0,9.11,8.89,8.89,0,*47
1531922438.97,2090,17.81,73480.0,9.13,8.79,8.89,0,*42
1531922440.2,2091,17.81,73482.5,9.11,8.87,8.89,0,*40
1531922441.43,2092,17.81,73472.3,9.13,9.01,8.93,0,*45
1531922442.65,2093,17.81,73466.8,9.13,8.93,8.93,0,*4E
1531922443.9,2094,17.81,73466.8,9.11,9.01,8.97,0,*45
1531922445.08,2095,17.81,73480.3,9.13,9.03,9.03,0,*48
1531922446.33,2096,17.81,73482.8,9.11,8.97,8.97,0,*49
1531922447.56,2097,17.81,73480.8,9.13,8.93,8.93,0,*4A
1531922448.76,2098,17.81,73480.0,9.13,9.01,9.03,0,*47
1531922449.96,2099,17.81,73474.5,9.13,9.01,9.03,0,*46
1531922451.19,2100,17.81,73468.0,9.13,8.93,8.93,0,*45
1531922452.42,2101,17.81,73470.8,9.13,8.89,8.93,0,*4F
1531922453.64,2102,17.81,73466.0,9.13,8.93,9.01,0,*4D
1531922454.89,2103,17.81,73460.8,9.11,8.97,8.97,0,*44
1531922456.15,2104,17.81,73466.3,9.11,9.01,9.01,0,*43
1531922457.38,2105,17.81,73464.0,9.11,8.87,8.89,0,*4C
1531922458.58,2106,17.81,73472.5,9.13,8.89,9.03,0,*40
1531922459.78,2107,17.81,73478.3,9.13,9.03,9.11,0,*41
1531922460.98,2108,17.81,73486.3,9.13,9.03,9.01,0,*4F
1531922462.17,2109,17.81,73484.8,9.13,9.03,9.03,0,*4C
1531922463.34,2110,17.81,73480.0,9.13,8.79,8.79,0,*44
1531922464.55,2111,17.81,73476.5,9.11,8.79,8.87,0,*46
1531922465.79,2112,17.81,73478.3,9.11,8.75,8.75,0,*44
1531922466.99,2113,17.81,73484.5,9.13,8.71,8.79,0,*4F
1531922468.22,2114,17.81,73490.5,9.13,8.33,8.37,0,*44
1531922469.41,2115,17.81,73490.5,9.11,7.97,8.01,0,*43
1531922470.61,2116,17.81,73480.8,9.11,7.97,7.97,0,*40
1531922471.81,2117,17.81,73476.8,9.05,8.15,8.05,0,*45
1531922472.99,2118,17.81,73476.0,9.05,8.05,8.15,0,*4A
1531922474.19,2119,17.81,73476.8,9.05,8.15,8.19,0,*46
1531922475.39,2120,17.81,73478.8,9.05,8.27,8.27,0,*40
1531922476.58,2121,17.81,73472.0,9.05,8.45,8.45,0,*41
1531922477.8,2122,17.81,73470.8,9.03,8.47,8.51,0,*43
1531922479.02,2123,17.81,73474.3,9.03,8.37,8.37,0,*45
1531922480.23,2124,17.81,73470.3,9.03,8.47,8.41,0,*44
1531922481.45,2125,17.81,73466.3,9.03,8.47,8.51,0,*44
1531922482.65,2126,17.81,73470.3,9.01,8.61,8.61,0,*42
1531922483.84,2127,17.81,73464.8,9.03,8.71,8.79,0,*49
1531922485.08,2128,17.81,73476.3,9.05,8.51,8.55,0,*4C
1531922486.3,2129,17.81,73474.5,9.03,8.47,8.37,0,*48
1531922487.55,2130,17.81,73482.0,9.01,8.59,8.59,0,*45
1531922488.75,2131,17.81,73486.3,9.01,8.23,8.27,0,*40
1531922490.01,2132,17.81,73478.0,9.01,7.61,7.61,0,*47
1531922491.26,2133,17.81,73476.5,9.01,7.61,7.69,0,*4E
1531922492.48,2134,17.81,73476.8,8.99,7.65,7.69,0,*4D
1531922493.73,2135,17.81,73472.8,8.97,7.69,7.69,0,*4E
1531922494.97,2136,17.81,73470.0,8.97,7.77,7.87,0,*42
1531922496.17,2137,17.81,73472.3,8.97,8.19,8.19,0,*4C
1531922497.41,2138,17.81,73476.5,8.97,8.55,8.47,0,*40
1531922498.6,2139,17.81,73480.0,8.97,8.65,8.69,0,*4E
1531922499.82,2140,17.81,73484.5,8.95,8.75,8.75,0,*4E
1531922501.01,2141,17.81,73490.5,8.95,8.75,8.83,0,*46
1531922502.2,2142,17.81,73486.3,8.95,8.45,8.51,0,*49
1531922503.44,2143,17.81,73476.5,8.97,8.37,8.33,0,*4B
1531922504.68,2144,17.81,73478.3,8.97,8.47,8.47,0,*48
1531922505.85,2145,17.81,73474.8,8.99,8.45,8.45,0,*47
1531922507.07,2146,17.81,73474.3,8.97,8.65,8.59,0,*45
1531922508.28,2147,17.81,73472.0,8.97,8.69,8.75,0,*46
1531922509.46,2148,17.81,73472.0,8.97,8.65,8.65,0,*44
1531922510.72,2149,17.81,73472.3,8.97,8.55,8.55,0,*45
1531922511.97,2150,17.81,73468.8,8.97,8.59,8.55,0,*41
1531922513.21,2151,17.81,73468.3,8.97,8.59,8.59,0,*4C
1531922514.43,2152,17.81,73472.5,8.97,8.65,8.59,0,*40
1531922515.68,2153,17.81,73472.3,8.97,8.55,8.55,0,*4E
1531922516.92,2154,17.81,73476.0,8.97,8.47,8.47,0,*49
1531922518.13,2155,17.81,73472.8,8.93,8.19,8.19,0,*4C
1531922519.3,2156,17.81,73472.8,8.95,8.27,8.27,0,*49
1531922520.46,2157,17.81,73466.8,8.95,7.97,7.97,0,*48
1531922521.67,2158,17.81,73468.3,8.93,8.27,8.27,0,*41
1531922522.9,2159,17.81,73476.3,8.93,8.29,8.29,0,*40
1531922524.15,2160,17.81,73476.0,8.93,8.51,8.51,0,*4A
1531922525.4,2161,17.81,73470.8,8.93,8.59,8.55,0,*47
1531922526.64,2162,17.81,73474.5,8.93,8.41,8.51,0,*49
1531922527.84,2163,17.81,73476.3,8.95,8.61,8.55,0,*48
1531922529.08,2164,17.81,73488.0,8.93,8.51,8.47,0,*49
1531922530.27,2165,17.81,73494.0,8.95,8.45,8.41,0,*4D
1531922531.48,2166,17.81,73486.3,8.95,7.77,7.87,0,*45
1531922532.68,2167,17.81,73482.8,8.93,7.51,7.51,0,*4D
1531922533.93,2168,17.81,73472.3,8.89,7.77,7.77,0,*49
1531922535.13,2169,17.81,73470.5,8.91,8.13,8.15,0,*47
1531922536.32,2170,17.81,73462.8,8.89,8.19,8.23,0,*49
1531922537.53,2171,17.81,73460.8,8.89,8.19,8.19,0,*41
1531922538.7,2172,17.81,73460.3,8.91,8.27,8.23,0,*4F
1531922539.9,2173,17.81,73462.8,8.89,8.23,8.23,0,*43
1531922541.12,2174,17.81,73462.8,8.91,8.47,8.41,0,*4B
1531922542.31,2175,17.81,73456.5,8.89,8.45,8.45,0,*45
1531922543.53,2176,17.81,73470.8,8.91,8.51,8.47,0,*48
1531922544.75,2177,17.81,73466.8,8.91,8.59,8.59,0,*4E
1531922545.97,2178,17.81,73466.8,8.91,8.47,8.51,0,*46
1531922547.19,2179,17.81,73482.8,8.89,8.59,8.69,0,*4A
1531922548.4,2180,17.81,73486.3,8.89,8.69,8.75,0,*42
1531922549.6,2181,17.81,73480.3,8.91,8.61,8.59,0,*4C
1531922550.82,2182,17.81,73474.3,8.91,8.41,8.41,0,*44
1531922552.04,2183,17.81,73478.0,8.91,8.51,8.51,0,*45
1531922553.23,2184,17.81,73478.8,8.91,8.61,8.71,0,*43
1531922554.4,2185,17.81,73482.0,8.91,8.79,8.83,0,*46
1531922555.62,2186,17.81,73478.5,8.91,8.71,8.71,0,*40
1531922556.86,2187,17.81,73476.8,8.89,8.93,8.93,0,*48
1531922558.09,2188,17.81,73490.8,8.93,9.07,9.19,0,*43
1531922559.33,2189,17.81,73484.8,8.93,9.15,9.15,0,*4D
1531922560.55,2190,17.81,73484.0,8.95,8.97,8.93,0,*47
1531922561.8,2191,17.81,73488.3,8.93,8.93,8.93,0,*44
1531922563.01,2192,17.81,73490.3,8.95,8.93,8.93,0,*41
1531922564.24,2193,17.81,73488.3,8.95,9.01,9.01,0,*40
1531922565.43,2194,17.81,73488.3,8.95,9.07,9.11,0,*40
1531922566.63,2195,17.81,73488.5,8.95,9.01,9.07,0,*40
1531922567.84,2196,17.81,73488.0,8.95,8.93,8.97,0,*41
1531922569.07,2197,17.81,73484.0,8.97,9.01,9.03,0,*44
1531922570.26,2198,17.81,73480.0,8.99,9.03,9.11,0,*44
1531922571.51,2199,17.81,73480.3,8.97,9.01,9.01,0,*48
1531922572.68,2200,17.81,73484.0,8.99,9.03,9.03,0,*45
1531922573.86,2201,17.81,73486.5,8.99,9.03,9.03,0,*44
1531922575.07,2202,17.81,73486.0,8.99,9.15,9.15,0,*47
1531922576.28,2203,17.81,73478.3,8.99,9.15,9.15,0,*46
1531922577.51,2204,17.81,73482.5,9.01,9.01,9.03,0,*43
1531922578.73,2205,17.81,73482.3,9.01,9.01,9.03,0,*42
1531922579.96,2206,17.81,73490.0,9.01,9.01,9.03,0,*41
1531922581.21,2207,17.81,73488.0,9.01,9.01,9.01,0,*42
1531922582.41,2208,17.81,73486.3,9.01,9.03,9.03,0,*4D
1531922583.64,2209,17.81,73486.3,9.01,9.01,9.03,0,*4E
1531922584.84,2210,17.81,73486.8,9.01,9.03,9.03,0,*44
1531922586.02,2211,17.81,73488.8,9.03,9.03,9.07,0,*43
1531922587.24,2212,17.81,73486.5,9.03,9.01,9.01,0,*44
1531922588.43,2213,17.81,73488.8,9.03,8.83,8.89,0,*4F
1531922589.63,2214,17.81,73484.5,9.03,8.83,8.93,0,*43
1531922590.85,2215,17.81,73484.0,9.03,8.93,8.93,0,*43
1531922592.07,2216,17.81,73484.3,9.03,8.89,8.93,0,*4B
1531922593.26,2217,17.81,73484.0,9.03,8.93,9.03,0,*49
1531922594.48,2218,17.81,73490.0,9.03,8.89,9.01,0,*4F
1531922595.7,2219,17.81,73482.5,9.03,8.89,8.89,0,*4F
1531922596.87,2220,17.81,73486.5,9.03,8.83,8.83,0,*45
1531922598.09,2221,17.81,73488.8,9.03,8.59,8.59,0,*44
1531922599.31,2222,17.81,73484.3,9.03,8.59,8.59,0,*47
1531922600.56,2223,17.81,73488.0,9.01,8.41,8.47,0,*42
1531922601.79,2224,17.81,73474.3,9.01,7.79,7.95,0,*41
1531922603.01,2225,17.81,73470.5,9.01,7.27,7.33,0,*47
1531922604.2,2226,17.81,73470.3,8.97,7.59,7.59,0,*4F
1531922605.42,2227,17.81,73468.3,8.97,7.79,7.87,0,*4F
1531922606.64,2228,17.81,73486.3,8.97,8.13,8.09,0,*4A
1531922607.89,2229,17.81,73474.5,8.97,7.65,7.69,0,*4C
1531922609.09,2230,17.81,73478.8,8.95,7.55,7.61,0,*4D
1531922610.33,2231,17.81,73474.8,8.93,7.23,7.27,0,*49
1531922611.52,2232,17.81,73474.3,8.91,6.69,6.79,0,*4D
1531922612.75,2233,17.81,73476.8,8.89,6.97,6.91,0,*42
1531922613.96,2234,17.81,73476.8,8.87,7.23,7.23,0,*4D
1531922615.16,2235,17.81,73476.0,8.85,7.45,7.45,0,*4E
1531922616.41,2236,17.81,73482.3,8.85,7.73,7.73,0,*4D
1531922617.66,2237,17.81,73476.3,8.85,7.95,7.95,0,*4C
1531922618.86,2238,17.81,73476.8,8.85,8.05,8.05,0,*43
1531922620.06,2239,17.81,73480.0,8.85,8.15,8.15,0,*42
1531922621.26,2240,17.81,73480.3,8.85,8.15,8.15,0,*4C
1531922622.46,2241,17.81,73478.3,8.81,8.01,8.05,0,*4D
1531922623.71,2242,17.81,73476.3,8.85,7.87,7.95,0,*4D
1531922624.91,2243,17.81,73478.0,8.85,8.15,8.15,0,*4F
1531922626.16,2244,17.81,73476.8,8.85,8.33,8.33,0,*48
1531922627.38,2245,17.81,73476.8,8.85,8.41,8.45,0,*4D
1531922628.59,2246,17.81,73478.0,8.81,8.15,8.19,0,*42
1531922629.79,2247,17.81,73480.0,8.81,8.15,8.15,0,*4F
1531922631.01,2248,17.81,73482.5,8.81,8.05,8.13,0,*47
1531922632.21,2249,17.81,73486.3,8.81,8.15,8.19,0,*4D
1531922633.42,2250,17.81,73482.0,8.81,8.15,8.27,0,*48
1531922634.62,2251,17.81,73482.3,8.81,8.15,8.15,0,*48
1531922635.82,2252,17.81,73478.5,8.79,8.05,8.13,0,*4B
1531922637.02,2253,17.81,73478.5,8.81,8.19,8.19,0,*4A
1531922638.26,2254,17.81,73476.3,8.81,8.51,8.47,0,*4A
1531922639.52,2255,17.81,73476.0,8.85,8.55,8.55,0,*48
1531922640.78,2256,17.81,73482.0,8.85,8.55,8.55,0,*4B
1531922642.02,2257,17.81,73482.3,8.85,8.75,8.75,0,*4A
1531922643.19,2258,17.81,73480.8,8.87,8.87,8.87,0,*47
1531922644.44,2259,17.81,73480.0,8.85,8.75,8.71,0,*40
1531922645.68,2260,17.81,73476.5,8.81,8.41,8.29,0,*44
1531922646.9,2261,17.81,73482.0,8.85,8.45,8.41,0,*4B
1531922648.12,2262,17.81,73488.3,8.85,8.45,8.51,0,*49
1531922649.32,2263,17.81,73492.5,8.85,8.45,8.45,0,*4D
1531922650.52,2264,17.81,73488.3,8.85,8.15,8.19,0,*46
1531922651.77,2265,17.81,73482.0,8.85,7.77,7.83,0,*40
1531922652.94,2266,17.81,73482.0,8.79,7.51,7.59,0,*43
1531922654.16,2267,17.81,73480.8,8.81,7.83,7.79,0,*48
1531922655.37,2268,17.81,73480.0,8.81,8.19,8.19,0,*42
1531922656.57,2269,17.81,73482.5,8.81,8.27,8.27,0,*43
1531922657.8,2270,17.81,73482.5,8.79,8.41,8.37,0,*4D
1531922659.0,2271,17.81,73482.3,8.79,8.29,8.27,0,*43
1531922660.23,2272,17.81,73482.0,8.79,8.37,8.41,0,*4F
1531922661.4,2273,17.81,73482.3,8.79,8.61,8.61,0,*4F
1531922662.59,2274,17.81,73480.5,8.81,8.61,8.61,0,*4F
1531922663.79,2275,17.81,73478.0,8.81,8.61,8.61,0,*4E
1531922665.04,2276,17.81,73478.3,8.81,8.37,8.41,0,*4C
1531922666.28,2277,17.81,73472.3,8.81,8.37,8.41,0,*4D
1531922667.48,2278,17.81,73474.3,8.81,8.15,8.19,0,*4F
1531922668.71,2279,17.81,73474.5,8.81,8.19,8.29,0,*41
1531922669.93,2280,17.81,73472.8,8.79,8.41,8.41,0,*43
1531922671.18,2281,17.81,73474.0,8.81,8.59,8.59,0,*45
1531922672.43,2282,17.81,73474.8,8.81,8.41,8.47,0,*40
1531922673.66,2283,17.81,73478.8,8.85,8.61,8.55,0,*44
1531922674.87,2284,17.81,73476.3,8.85,8.45,8.51,0,*41
1531922676.12,2285,17.81,73480.5,8.81,8.29,8.37,0,*4E
1531922677.37,2286,17.81,73476.3,8.81,8.37,8.41,0,*43
1531922678.62,2287,17.81,73480.8,8.85,8.41,8.51,0,*46
1531922679.84,2288,17.81,73480.8,8.79,8.51,8.51,0,*4B
1531922681.07,2289,17.81,73484.3,8.85,8.23,8.33,0,*48
1531922682.27,2290,17.81,73482.5,8.81,8.15,8.15,0,*45
1531922683.45,2291,17.81,73476.5,8.79,8.15,8.19,0,*4F
1531922684.64,2292,17.81,73480.8,8.81,8.05,8.05,0,*47
1531922685.84,2293,17.81,73478.3,8.81,8.15,8.19,0,*4A
1531922687.02,2294,17.81,73480.0,8.79,8.15,8.15,0,*46
1531922688.2,2295,17.81,73474.3,8.79,8.15,8.19,0,*4B
1531922689.38,2296,17.81,73478.0,8.79,8.15,8.15,0,*44
1531922690.61,2297,17.81,73476.3,8.79,8.13,8.13,0,*45
1531922691.83,2298,17.81,73476.3,8.79,8.29,8.29,0,*4A
1531922693.02,2299,17.81,73474.0,8.79,8.61,8.59,0,*40
1531922694.24,2300,17.81,73470.8,8.79,8.37,8.29,0,*45
1531922695.49,2301,17.81,73478.3,8.81,8.37,8.37,0,*4C
1531922696.72,2302,17.81,73480.0,8.79,8.47,8.41,0,*4E
1531922697.92,2303,17.81,73472.5,8.79,8.29,8.27,0,*47
1531922699.14,2304,17.81,73468.0,8.79,8.47,8.41,0,*48
1531922700.36,2305,17.81,73472.8,8.79,8.47,8.47,0,*4F
1531922701.62,2306,17.81,73472.5,8.85,8.55,8.55,0,*4F
1531922702.85,2307,17.81,73472.8,8.79,8.59,8.59,0,*4D
1531922704.07,2308,17.81,73472.3,8.81,8.71,8.69,0,*4C
1531922705.27,2309,17.81,73488.8,8.81,8.27,8.19,0,*49
1531922706.52,2310,17.81,73480.8,8.81,8.37,8.41,0,*4D
1531922707.76,2311,17.81,73472.0,8.81,8.41,8.29,0,*43
1531922708.93,2312,17.81,73470.0,8.79,8.69,8.69,0,*49
1531922710.14,2313,17.81,73494.8,8.81,8.87,8.87,0,*4F
1531922711.34,2314,17.81,73498.0,8.85,8.83,8.83,0,*4C
1531922712.53,2315,17.81,73478.5,8.85,8.61,8.65,0,*49
1531922713.72,2316,17.81,73478.8,8.85,8.65,8.65,0,*4E
1531922714.93,2317,17.81,73468.5,8.87,8.75,8.75,0,*4D
1531922716.17,2318,17.81,73486.0,8.85,8.71,8.75,0,*44
1531922717.42,2319,17.81,73484.3,8.85,8.41,8.51,0,*40
1531922718.67,2320,17.81,73490.3,8.85,8.41,8.41,0,*4B
1531922719.87,2321,17.81,73480.3,8.87,8.27,8.33,0,*4D
1531922721.07,2322,17.81,73482.5,8.85,8.09,8.19,0,*48
1531922722.31,2323,17.81,73480.0,8.85,8.29,8.29,0,*48
1531922723.53,2324,17.81,73480.3,8.85,8.45,8.55,0,*4E
1531922724.76,2325,17.81,73476.0,8.85,8.55,8.61,0,*49
1531922725.96,2326,17.81,73472.8,8.85,8.09,8.15,0,*40
1531922727.16,2327,17.81,73476.5,8.81,8.15,8.15,0,*48
1531922728.41,2328,17.81,73480.3,8.85,8.41,8.37,0,*42
1531922729.61,2329,17.81,73480.0,8.81,8.61,8.61,0,*46
1531922730.83,2330,17.81,73482.8,8.81,8.51,8.61,0,*4D
1531922732.05,2331,17.81,73486.0,8.81,8.51,8.61,0,*4C
1531922733.27,2332,17.81,73482.8,8.81,8.27,8.29,0,*42
1531922734.53,2333,17.81,73480.5,8.85,7.95,7.95,0,*49
1531922735.72,2334,17.81,73486.5,8.81,7.41,7.51,0,*4B
1531922736.95,2335,17.81,73474.0,8.81,6.73,6.83,0,*44
1531922738.13,2336,17.81,73478.3,8.79,6.21,6.33,0,*4C
1531922739.37,2337,17.81,73480.3,8.75,6.61,6.65,0,*46
1531922740.59,2338,17.81,73480.0,8.73,6.57,6.65,0,*4A
1531922741.83,2339,17.81,73472.3,8.71,6.57,6.61,0,*4D
1531922743.0,2340,17.81,73470.0,8.69,6.75,6.75,0,*4F
1531922744.24,2341,17.81,73456.3,8.67,6.69,6.69,0,*40
1531922745.5,2342,17.81,73440.8,8.67,6.87,6.91,0,*44
1531922746.74,2343,17.81,73424.8,8.67,7.19,7.23,0,*4B
1531922747.91,2344,17.81,73420.8,8.65,7.41,7.41,0,*47
1531922749.12,2345,17.81,73430.8,8.65,7.55,7.61,0,*41
1531922750.38,2346,17.81,73430.5,8.63,7.61,7.61,0,*43
1531922751.62,2347,17.81,73442.5,8.63,7.77,7.83,0,*49
1531922752.82,2348,17.81,73450.3,8.63,7.97,7.97,0,*4D
1531922754.05,2349,17.81,73452.5,8.65,8.13,8.13,0,*4A
1531922755.24,2350,17.81,73446.0,8.63,7.97,8.09,0,*4C
1531922756.42,2351,17.81,73466.3,8.65,8.09,8.09,0,*43
1531922757.62,2352,17.81,73452.8,8.65,8.13,8.09,0,*4B
1531922758.8,2353,17.81,73442.0,8.65,8.01,8.01,0,*41
1531922759.97,2354,17.81,73450.8,8.65,7.97,7.97,0,*46
1531922761.14,2355,17.81,73444.0,8.65,8.01,7.97,0,*47
1531922762.37,2356,17.81,73434.3,8.65,7.95,7.95,0,*44
1531922763.54,2357,17.81,73448.3,8.65,7.97,7.97,0,*45
1531922764.71,2358,17.81,73480.0,8.65,8.09,8.09,0,*4A
1531922765.89,2359,17.81,73482.0,8.65,8.23,8.23,0,*4B
1531922767.11,2360,17.81,73486.8,8.65,8.29,8.33,0,*4A
1531922768.3,2361,17.81,73484.5,8.67,7.97,7.97,0,*42
1531922769.54,2362,17.81,73474.5,8.65,7.61,7.61,0,*43
1531922770.79,2363,17.81,73460.8,8.63,7.61,7.65,0,*40
1531922772.02,2364,17.81,73452.0,8.65,7.95,7.95,0,*45
1531922773.25,2365,17.81,73462.3,8.65,7.95,7.95,0,*44
1531922774.42,2366,17.81,73470.3,8.65,7.97,7.97,0,*47
1531922775.64,2367,17.81,73472.3,8.67,8.13,8.05,0,*43
1531922776.82,2368,17.81,73480.8,8.65,8.23,8.23,0,*49
1531922778.02,2369,17.81,73486.3,8.65,8.23,8.29,0,*42
1531922779.25,2370,17.81,73482.0,8.65,7.87,7.95,0,*43
1531922780.48,2371,17.81,73472.0,8.65,7.65,7.73,0,*46
1531922781.72,2372,17.81,73472.8,8.63,7.83,7.83,0,*44
1531922782.95,2373,17.81,73470.8,8.65,7.95,7.95,0,*43
1531922784.18,2374,17.81,73476.3,8.63,7.97,7.95,0,*40
1531922785.41,2375,17.81,73474.0,8.65,8.13,8.13,0,*45
1531922786.58,2376,17.81,73474.8,8.65,7.97,7.97,0,*46
1531922787.8,2377,17.81,73478.8,8.63,8.23,8.29,0,*4B
1531922789.0,2378,17.81,73480.3,8.65,8.29,8.19,0,*4B
1531922790.18,2379,17.81,73476.8,8.65,8.19,8.19,0,*49
1531922791.35,2380,17.81,73478.8,8.65,7.97,8.01,0,*4F
1531922792.52,2381,17.81,73476.3,8.65,7.97,7.97,0,*4E
1531922793.7,2382,17.81,73472.0,8.65,8.09,8.09,0,*4D
1531922794.87,2383,17.81,73464.0,8.65,7.97,8.01,0,*4C
1531922796.07,2384,17.81,73470.3,8.65,7.95,7.97,0,*49
1531922797.3,2385,17.81,73470.3,8.65,8.13,8.13,0,*4A
1531922798.5,2386,17.81,73470.8,8.65,7.87,7.97,0,*48
1531922799.72,2387,17.81,73478.8,8.65,7.65,7.65,0,*48
1531922800.95,2388,17.81,73478.8,8.65,7.61,7.73,0,*44
1531922802.18,2389,17.81,73478.3,8.63,7.55,7.65,0,*43
1531922803.43,2390,17.81,73466.8,8.63,7.61,7.61,0,*48
1531922804.69,2391,17.81,73478.5,8.63,7.87,7.95,0,*4A
1531922805.93,2392,17.81,73478.5,8.63,7.83,7.87,0,*4E
1531922807.17,2393,17.81,73482.3,8.59,7.83,7.87,0,*46
1531922808.42,2394,17.81,73476.5,8.59,7.83,7.83,0,*45
1531922809.67,2395,17.81,73472.0,8.63,7.95,7.87,0,*4E
1531922810.86,2396,17.81,73472.0,8.59,7.97,7.97,0,*47
1531922812.05,2397,17.81,73464.0,8.59,8.09,8.09,0,*46
1531922813.25,2398,17.81,73458.8,8.59,8.09,8.15,0,*44
1531922814.43,2399,17.81,73464.0,8.57,8.23,8.23,0,*46
1531922815.64,2400,17.81,73468.8,8.59,8.27,8.27,0,*4F
1531922816.84,2401,17.81,73470.0,8.63,8.01,8.01,0,*47
1531922818.03,2402,17.81,73472.5,8.63,8.01,8.09,0,*4C
1531922819.26,2403,17.81,73472.5,8.63,8.13,8.19,0,*4F
1531922820.52,2404,17.81,73462.5,8.59,7.95,7.95,0,*4B
1531922821.76,2405,17.81,73470.3,8.63,7.87,7.87,0,*43
1531922823.0,2406,17.81,73464.8,8.63,7.83,7.83,0,*40
1531922824.25,2407,17.81,73470.3,8.59,7.91,7.91,0,*48
1531922825.5,2408,17.81,73468.8,8.59,7.95,7.95,0,*47
1531922826.7,2409,17.81,73470.5,8.59,8.09,8.09,0,*46
1531922827.88,2410,17.81,73472.0,8.57,8.23,8.23,0,*40
1531922829.13,2411,17.81,73480.3,8.59,8.41,8.37,0,*4E
1531922830.38,2412,17.81,73474.5,8.59,8.41,8.41,0,*4C
1531922831.63,2413,17.81,73474.5,8.59,8.37,8.37,0,*4D
1531922832.89,2414,17.81,73472.8,8.59,7.95,7.95,0,*4A
1531922834.13,2415,17.81,73472.8,8.59,8.29,8.29,0,*4B
1531922835.38,2416,17.81,73472.5,8.63,8.51,8.55,0,*45
1531922836.58,2417,17.81,73474.5,8.63,8.45,8.45,0,*40
1531922837.82,2418,17.81,73480.5,8.63,8.29,8.33,0,*44
1531922839.07,2419,17.81,73482.5,8.63,8.33,8.33,0,*4E
1531922840.32,2420,17.81,73476.0,8.63,8.41,8.41,0,*44
1531922841.54,2421,17.81,73472.5,8.65,8.29,8.33,0,*48
1531922842.76,2422,17.81,73478.5,8.65,8.29,8.29,0,*40
1531922843.96,2423,17.81,73474.3,8.63,8.19,8.23,0,*4E
1531922845.18,2424,17.81,73472.5,8.63,8.29,8.23,0,*4A
1531922846.38,2425,17.81,73482.8,8.63,8.23,8.23,0,*41
1531922847.58,2426,17.81,73472.5,8.65,8.45,8.41,0,*40
1531922848.8,2427,17.81,73476.8,8.63,8.45,8.41,0,*47
1531922850.05,2428,17.81,73478.8,8.63,8.29,8.33,0,*47
1531922851.25,2429,17.81,73482.0,8.63,8.23,8.23,0,*4D
1531922852.47,2430,17.81,73480.0,8.65,8.29,8.33,0,*48
1531922853.64,2431,17.81,73478.0,8.65,8.45,8.45,0,*42
1531922854.9,2432,17.81,73480.0,8.63,8.55,8.55,0,*47
1531922856.14,2433,17.81,73478.3,8.65,8.55,8.55,0,*40
1531922857.36,2434,17.81,73480.0,8.65,8.51,8.55,0,*43
1531922858.59,2435,17.81,73484.3,8.65,8.51,8.51,0,*46
1531922859.82,2436,17.81,73484.0,8.65,8.41,8.55,0,*40
1531922861.05,2437,17.81,73486.3,8.65,8.33,8.51,0,*40
1531922862.3,2438,17.81,73484.8,8.67,8.47,8.59,0,*46
1531922863.52,2439,17.81,73480.3,8.67,8.45,8.37,0,*4D
1531922864.74,2440,17.81,73476.8,8.67,8.45,8.37,0,*43
1531922865.95,2441,17.81,73476.3,8.69,8.27,8.33,0,*4C
1531922867.15,2442,17.81,73476.3,8.67,8.23,8.23,0,*44
1531922868.36,2443,17.81,73480.0,8.67,8.27,8.27,0,*45
1531922869.58,2444,17.81,73478.8,8.67,8.45,8.37,0,*47
1531922870.78,2445,17.81,73478.0,8.65,8.45,8.51,0,*44
1531922871.98,2446,17.81,73482.5,8.67,8.45,8.45,0,*40
1531922873.23,2447,17.81,73480.8,8.67,8.59,8.59,0,*41
1531922874.48,2448,17.81,73480.8,8.67,8.59,8.59,0,*4E
1531922875.7,2449,17.81,73480.0,8.67,8.59,8.65,0,*40
1531922876.9,2450,17.81,73476.8,8.69,8.59,8.65,0,*46
1531922878.12,2451,17.81,73478.0,8.69,8.37,8.47,0,*4F
1531922879.35,2452,17.81,73478.0,8.69,8.47,8.47,0,*4B
1531922880.57,2453,17.81,73486.5,8.69,8.37,8.37,0,*4A
1531922881.82,2454,17.81,73484.5,8.71,8.29,8.41,0,*4A
1531922883.06,2455,17.81,73488.0,8.71,8.51,8.59,0,*4D
1531922884.26,2456,17.81,73486.0,8.71,8.61,8.61,0,*46
1531922885.43,2457,17.81,73482.5,8.69,8.45,8.45,0,*4E
1531922886.65,2458,17.81,73484.3,8.69,8.47,8.47,0,*41
1531922887.88,2459,17.81,73482.3,8.71,8.59,8.61,0,*42
1531922889.07,2460,17.81,73484.8,8.71,8.69,8.69,0,*43
1531922890.31,2461,17.81,73490.0,8.71,8.71,8.75,0,*46
1531922891.53,2462,17.81,73486.0,8.71,8.69,8.75,0,*4C
1531922892.74,2463,17.81,73484.3,8.71,8.69,8.71,0,*49
1531922893.96,2464,17.81,73480.0,8.73,8.75,8.75,0,*45
1531922895.17,2465,17.81,73482.5,8.73,8.75,8.71,0,*40
1531922896.39,2466,17.81,73480.3,8.73,8.75,8.75,0,*47
1531922897.6,2467,17.81,73478.8,8.73,8.75,8.75,0,*46
1531922898.79,2468,17.81,73480.3,8.73,8.75,8.79,0,*45
1531922900.01,2469,17.81,73478.5,8.75,8.69,8.75,0,*43
1531922901.17,2470,17.81,73482.0,8.73,8.61,8.65,0,*44
1531922902.38,2471,17.81,73480.5,8.73,8.75,8.75,0,*41
1531922903.55,2472,17.81,73482.0,8.73,8.65,8.79,0,*4F
1531922904.76,2473,17.81,73482.5,8.75,8.69,8.75,0,*48
1531922905.96,2474,17.81,73474.8,8.77,8.83,8.83,0,*40
1531922907.18,2475,17.81,73478.8,8.75,8.75,8.79,0,*4F
1531922908.42,2476,17.81,73482.5,8.75,8.75,8.75,0,*40
1531922909.67,2477,17.81,73480.5,8.77,8.75,8.75,0,*43
1531922910.89,2478,17.81,73476.3,8.77,8.01,8.13,0,*4F
1531922912.14,2479,17.81,73472.5,8.75,8.33,8.33,0,*4F
1531922913.39,2480,17.81,73476.0,8.75,8.55,8.59,0,*45
1531922914.58,2481,17.81,73474.5,8.75,8.69,8.69,0,*48
1531922915.78,2482,17.81,73474.8,8.77,8.79,8.79,0,*49
1531922917.01,2483,17.81,73472.0,8.77,8.75,8.79,0,*44
1531922918.25,2484,17.81,73474.5,8.75,8.75,8.75,0,*4D
1531922919.44,2485,17.81,73472.3,8.77,8.69,8.79,0,*4F
1531922920.64,2486,17.81,73476.0,8.75,8.79,8.79,0,*4F
1531922921.85,2487,17.81,73476.8,8.77,8.79,8.83,0,*49
1531922923.08,2488,17.81,73478.8,8.77,8.47,8.45,0,*41
1531922924.28,2489,17.81,73474.5,8.77,8.69,8.69,0,*42
1531922925.49,2490,17.81,73474.8,8.77,8.69,8.75,0,*47
1531922926.69,2491,17.81,73474.3,8.77,8.69,8.69,0,*4B
1531922927.91,2492,17.81,73466.0,8.77,8.69,8.75,0,*45
1531922929.1,2493,17.81,73470.0,8.77,8.65,8.65,0,*49
1531922930.36,2494,17.81,73466.0,8.77,8.55,8.55,0,*4E
1531922931.56,2495,17.81,73466.3,8.77,8.65,8.69,0,*43
1531922932.76,2496,17.81,73468.5,8.77,8.65,8.69,0,*40
1531922933.92,2497,17.81,73470.8,8.79,8.61,8.69,0,*4B
1531922935.12,2498,17.81,73464.0,8.79,8.71,8.83,0,*41
1531922936.3,2499,17.81,73468.8,8.79,8.79,8.79,0,*4D
1531922937.5,2500,17.81,73468.5,8.79,8.71,8.79,0,*44
1531922938.68,2501,17.81,73460.0,8.79,8.87,8.87,0,*4D
1531922939.86,2502,17.81,73464.5,8.79,8.79,8.83,0,*4B